This is the latest recevied weather packets stored in our database for station/object HEBOWX. If no packets are shown the sender has not sent any weather packets the latest 10 day(s).
| Time | Temp. | Humidity | Pressure | Rain* | Wind** | Luminosity | Snow |
|---|---|---|---|---|---|---|---|
| 1778078731 | 9.44° C | 72% | 1016.2 hPa | 0 mm | - | - | - |
| 1778078431 | 9.44° C | 72% | 1016.3 hPa | 0 mm | - | - | - |
| 1778078131 | 9.44° C | 72% | 1016.3 hPa | 0 mm | - | - | - |
| 1778077831 | 9.44° C | 71% | 1016.3 hPa | 0 mm | - | - | - |
| 1778077533 | 8.89° C | 71% | 1016.4 hPa | 0 mm | - | - | - |
| 1778077234 | 8.89° C | 71% | 1016.3 hPa | 0 mm | - | - | - |
| 1778076931 | 8.89° C | 70% | 1016.2 hPa | 0 mm | - | - | - |
| 1778076632 | 8.89° C | 69% | 1016.2 hPa | 0 mm | - | - | - |
| 1778076331 | 8.89° C | 66% | 1016.3 hPa | 0 mm | - | - | - |
| 1778076032 | 8.89° C | 66% | 1016.1 hPa | 0 mm | - | - | - |
| 1778075737 | 8.89° C | 63% | 1016.3 hPa | 0 mm | - | - | - |
| 1778075433 | 8.89° C | 64% | 1016.1 hPa | 0 mm | - | - | - |
| 1778075131 | 8.89° C | 63% | 1016 hPa | 0 mm | - | - | - |
| 1778074834 | 8.89° C | 62% | 1015.7 hPa | 0 mm | - | - | - |
| 1778074531 | 8.89° C | 61% | 1015.7 hPa | 0 mm | - | - | - |
| 1778074232 | 9.44° C | 59% | 1015.9 hPa | 0 mm | - | - | - |
| 1778073935 | 9.44° C | 59% | 1015.6 hPa | 0 mm | - | - | - |
| 1778073632 | 9.44° C | 57% | 1015.6 hPa | 0 mm | - | - | - |
| 1778073331 | 10° C | 56% | 1015.7 hPa | 0 mm | - | - | - |
| 1778073032 | 10° C | 51% | 1015.6 hPa | 0 mm | - | - | - |
| 1778072731 | 10° C | 51% | 1015.6 hPa | 0 mm | - | - | - |
| 1778072431 | 10° C | 52% | 1015.6 hPa | 0 mm | - | - | - |
| 1778072133 | 10° C | 53% | 1015.5 hPa | 0 mm | - | - | - |
| 1778071831 | 10° C | 55% | 1015.6 hPa | 0 mm | - | - | - |
| 1778071531 | 10° C | 53% | 1015.5 hPa | 0 mm | - | - | - |
* Rain latest hour (hover to see other rain measurements)
** Current wind speed in m/s (hover to see current wind gust speed)